FW9794 Weather Reports


time (UTC)temp
C
wind
direction
speed
KPH
gust
KPH
rain 1hr
cm
rain 24hr
cm
rain mn
cm
humidity
%
barometer
mb
20260504035549 8 0 0.0 3.2 0.00 0.00 0.00 79 1016.0
20260504035049 8 0 0.0 3.2 0.00 0.00 0.00 77 1016.0
20260504034607 8 0 0.0 1.6 0.00 0.00 0.00 77 1015.9
20260504034047 8 0 0.0 1.6 0.00 0.00 0.00 78 1016.0
20260504033548 8 0 0.0 0.0 0.00 0.00 0.00 78 1016.0
20260504033050 8 0 0.0 1.6 0.00 0.00 0.00 77 1015.8
20260504032547 9 0 0.0 1.6 0.00 0.00 0.00 75 1015.8
20260504032050 9 0 0.0 1.6 0.00 0.00 0.00 74 1015.8
20260504031552 9 0 0.0 0.0 0.00 0.00 0.00 75 1015.8
20260504031045 9 0 0.0 0.0 0.00 0.00 0.00 73 1015.8
20260504030545 9 0 0.0 1.6 0.00 0.00 0.00 73 1015.8
20260504030054 10 0 0.0 1.6 0.00 0.00 0.00 71 1015.7
20260504025546 10 0 0.0 1.6 0.00 0.00 0.00 71 1015.7
20260504025046 10 0 0.0 1.6 0.00 0.00 0.00 71 1015.7
20260504024551 10 0 0.0 1.6 0.00 0.00 0.00 70 1015.8
20260504024052 10 0 0.0 1.6 0.00 0.00 0.00 70 1015.8
20260504023549 10 360 0.0 1.6 0.00 0.00 0.00 71 1015.8
20260504023051 10 0 0.0 1.6 0.00 0.00 0.00 69 1015.9
20260504022549 10 0 0.0 1.6 0.00 0.00 0.00 69 1015.7
20260504022050 10 360 0.0 1.6 0.00 0.00 0.00 69 1015.7
20260504021554 11 0 0.0 1.6 0.00 0.00 0.00 70 1015.6
20260504021048 11 0 0.0 3.2 0.00 0.00 0.00 68 1015.5
20260504020547 11 360 0.0 3.2 0.00 0.00 0.00 67 1015.4
20260504020100 11 360 0.0 3.2 0.00 0.00 0.00 66 1015.5
20260504015548 11 360 0.0 3.2 0.00 0.00 0.00 67 1015.5
20260504015047 11 360 1.6 4.8 0.00 0.00 0.00 65 1015.5
20260504014613 11 360 1.6 4.8 0.00 0.00 0.00 63 1015.4
20260504014048 12 360 3.2 4.8 0.00 0.00 0.00 63 1015.4
20260504013552 12 360 0.0 3.2 0.00 0.00 0.00 61 1015.5
20260504013059 12 0 0.0 1.6 0.00 0.00 0.00 57 1015.6
20260504012549 13 0 0.0 1.6 0.00 0.00 0.00 57 1015.6
20260504012049 13 0 0.0 1.6 0.00 0.00 0.00 57 1015.6
20260504011559 13 0 0.0 1.6 0.00 0.00 0.00 57 1015.5
20260504011047 13 0 0.0 1.6 0.00 0.00 0.00 55 1015.4
20260504010549 13 0 0.0 1.6 0.00 0.00 0.00 54 1015.4
20260504010059 14 0 0.0 3.2 0.00 0.00 0.00 53 1015.4
20260504005549 14 0 0.0 3.2 0.00 0.00 0.00 52 1015.4
20260504005047 14 360 0.0 3.2 0.00 0.00 0.00 50 1015.3
20260504004553 15 0 0.0 1.6 0.00 0.00 0.00 50 1015.3
20260504004047 15 0 0.0 1.6 0.00 0.00 0.00 49 1015.3
20260504003548 15 0 0.0 3.2 0.00 0.00 0.00 49 1015.2
20260504003059 15 0 0.0 3.2 0.00 0.00 0.00 48 1015.2
20260504002546 15 0 0.0 3.2 0.00 0.00 0.00 48 1015.2
20260504002046 15 360 0.0 3.2 0.00 0.00 0.00 48 1015.2
20260504001551 16 0 0.0 3.2 0.00 0.00 0.00 47 1015.4
20260504001048 16 0 0.0 3.2 0.00 0.00 0.00 47 1015.4
20260504000547 16 0 0.0 4.8 0.00 0.00 0.00 46 1015.4
20260504000053 16 0 0.0 4.8 0.00 0.00 0.00 46 1015.3
20260503235547 16 360 0.0 4.8 0.00 0.00 0.00 45 1015.4
20260503235047 17 0 0.0 4.8 0.00 0.00 0.00 45 1015.4
20260503234554 17 0 0.0 4.8 0.00 0.00 0.00 44 1015.5
20260503234049 17 0 0.0 4.8 0.00 0.00 0.00 43 1015.5
20260503233549 17 360 1.6 8.0 0.00 0.00 0.00 43 1015.6
20260503233053 17 0 0.0 8.0 0.00 0.00 0.00 42 1015.6
20260503232550 17 360 1.6 8.0 0.00 0.00 0.00 42 1015.6
20260503232049 17 360 1.6 8.0 0.00 0.00 0.00 42 1015.7
20260503231551 17 360 0.0 8.0 0.00 0.00 0.00 41 1015.8
20260503231047 17 0 1.6 8.0 0.00 0.00 0.00 41 1015.8
20260503230548 17 0 1.6 9.7 0.00 0.00 0.00 41 1015.9
20260503230051 17 360 0.0 9.7 0.00 0.00 0.00 42 1015.9
20260503225547 17 360 3.2 9.7 0.00 0.00 0.00 40 1016.0
20260503225047 18 360 1.6 6.4 0.00 0.00 0.00 40 1016.0
20260503224551 18 360 1.6 9.7 0.00 0.00 0.00 39 1016.0
20260503224050 18 360 3.2 12.9 0.00 0.00 0.00 41 1016.0
20260503223549 18 360 1.6 12.9 0.00 0.00 0.00 41 1016.0
20260503223052 18 360 3.2 16.1 0.00 0.00 0.00 41 1016.1
20260503222549 18 360 4.8 16.1 0.00 0.00 0.00 40 1016.1
20260503222048 18 360 3.2 14.5 0.00 0.00 0.00 43 1016.1
20260503221556 18 0 1.6 12.9 0.00 0.00 0.00 41 1016.2
20260503221050 18 360 1.6 17.7 0.00 0.00 0.00 40 1016.2
20260503220548 18 360 3.2 17.7 0.00 0.00 0.00 41 1016.3
20260503215546 18 360 3.2 14.5 0.00 0.00 0.00 42 1016.4
20260503215051 18 360 4.8 12.9 0.00 0.00 0.00 42 1016.4
20260503214555 18 360 6.4 12.9 0.00 0.00 0.00 39 1016.4
20260503214046 18 360 4.8 12.9 0.00 0.00 0.00 42 1016.4
20260503213549 18 360 4.8 12.9 0.00 0.00 0.00 40 1016.4
20260503213107 18 229 1.6 12.9 0.00 0.00 0.00 45 1016.5
20260503212546 18 242 4.8 14.5 0.00 0.00 0.00 43 1016.4
20260503212049 18 273 6.4 14.5 0.00 0.00 0.00 41 1016.5
20260503211554 18 205 4.8 14.5 0.00 0.00 0.00 42 1016.6
20260503211048 18 250 6.4 16.1 0.00 0.00 0.00 42 1016.6
20260503210548 18 276 8.0 16.1 0.00 0.00 0.00 42 1016.6
20260503205549 18 226 6.4 19.3 0.00 0.00 0.00 41 1016.7
20260503205047 18 229 4.8 20.9 0.00 0.00 0.00 44 1016.7
20260503204556 18 0 4.8 20.9 0.00 0.00 0.00 43 1016.8
20260503204050 18 259 4.8 16.1 0.00 0.00 0.00 44 1016.8
20260503203547 18 287 4.8 22.5 0.00 0.00 0.00 42 1017.0
20260503203056 17 243 8.0 22.5 0.00 0.00 0.00 44 1017.1
20260503202548 18 223 8.0 19.3 0.00 0.00 0.00 41 1017.2
20260503202047 18 259 8.0 19.3 0.00 0.00 0.00 41 1017.3
20260503201554 18 296 9.7 19.3 0.00 0.00 0.00 43 1017.3
20260503201048 18 345 1.6 24.1 0.00 0.00 0.00 45 1017.3
20260503200552 18 316 8.0 24.1 0.00 0.00 0.00 40 1017.5
20260503200057 18 297 14.5 24.1 0.00 0.00 0.00 41 1017.6
20260503195548 18 292 4.8 17.7 0.00 0.00 0.00 41 1017.6
20260503195046 19 176 1.6 16.1 0.00 0.00 0.00 43 1017.7
20260503194556 19 277 3.2 22.5 0.00 0.00 0.00 40 1017.6
20260503194049 19 263 11.3 22.5 0.00 0.00 0.00 40 1017.8
20260503193549 19 257 4.8 16.1 0.00 0.00 0.00 40 1017.9
20260503193109 19 284 1.6 14.5 0.00 0.00 0.00 40 1018.0
20260503192550 18 268 3.2 14.5 0.00 0.00 0.00 40 1018.1
20260503192048 19 296 4.8 17.7 0.00 0.00 0.00 39 1018.1
20260503191557 20 297 8.0 17.7 0.00 0.00 0.00 37 1018.2
20260503191045 21 348 1.6 11.3 0.00 0.00 0.00 33 1018.2
20260503190546 21 60 3.2 16.1 0.00 0.00 0.00 36 1018.3
20260503190055 21 266 3.2 16.1 0.00 0.00 0.00 38 1018.4
20260503185546 21 238 4.8 16.1 0.00 0.00 0.00 38 1018.3
20260503185051 20 76 6.4 12.9 0.00 0.00 0.00 38 1018.4
20260503184608 19 145 1.6 12.9 0.00 0.00 0.00 42 1018.4
20260503184047 19 343 3.2 22.5 0.00 0.00 0.00 37 1018.5
20260503183545 20 234 8.0 22.5 0.00 0.00 0.00 35 1018.6
20260503183106 21 266 6.4 22.5 0.00 0.00 0.00 36 1018.6
20260503182545 21 211 3.2 12.9 0.00 0.00 0.00 38 1018.7
20260503182048 21 0 3.2 14.5 0.00 0.00 0.00 31 1018.7
20260503181607 20 158 1.6 14.5 0.00 0.00 0.00 41 1018.9
20260503181046 19 246 1.6 9.7 0.00 0.00 0.00 42 1019.0
20260503180546 18 0 3.2 11.3 0.00 0.00 0.00 40 1018.9
20260503180056 18 0 6.4 12.9 0.00 0.00 0.00 38 1019.0
20260503175549 18 308 3.2 17.7 0.00 0.00 0.00 38 1019.1
20260503175047 20 331 4.8 17.7 0.00 0.00 0.00 38 1019.1
20260503174556 20 248 4.8 16.1 0.00 0.00 0.00 39 1019.3
20260503174047 19 200 3.2 12.9 0.00 0.00 0.00 41 1019.3
20260503173547 18 164 1.6 11.3 0.00 0.00 0.00 40 1019.4
20260503173100 18 257 4.8 11.3 0.00 0.00 0.00 41 1019.5
20260503172548 18 306 1.6 9.7 0.00 0.00 0.00 40 1019.4
20260503172046 18 279 3.2 8.0 0.00 0.00 0.00 41 1019.5
20260503171548 18 313 1.6 14.5 0.00 0.00 0.00 41 1019.7
20260503171047 18 271 4.8 14.5 0.00 0.00 0.00 42 1019.8
20260503170547 18 180 0.0 16.1 0.00 0.00 0.00 44 1019.9
20260503150545 14 69 1.6 4.8 0.00 0.00 0.00 47 1020.7
20260503131046 8 326 0.0 4.8 0.00 0.00 0.00 76 1020.6
20260503130547 8 111 0.0 3.2 0.00 0.00 0.00 80 1020.6
20260503110547 3 0 0.0 0.0 0.00 0.00 0.00 92 1019.3
20260503081622 7 0 0.0 3.2 0.00 0.00 0.00 80 1018.0
20260503081049 8 0 0.0 1.6 0.00 0.00 0.00 79 1017.9
20260503080549 8 0 0.0 1.6 0.00 0.00 0.00 79 1017.9
20260503080112 8 0 0.0 1.6 0.00 0.00 0.00 78 1017.8
20260503072547 9 0 0.0 0.0 0.00 0.00 0.00 76 1017.4
20260503072047 9 0 0.0 0.0 0.00 0.00 0.00 76 1017.4
20260503071556 9 0 0.0 0.0 0.00 0.00 0.00 75 1017.4
20260503071047 9 0 0.0 0.0 0.00 0.00 0.00 75 1017.5
20260503070549 9 0 0.0 0.0 0.00 0.00 0.00 75 1017.4
20260503055049 10 0 0.0 1.6 0.00 0.00 0.00 78 1017.3
20260503054555 10 0 0.0 1.6 0.00 0.00 0.00 78 1017.2
20260503054047 10 0 0.0 1.6 0.00 0.00 0.00 77 1017.2
20260503053547 10 0 0.0 1.6 0.00 0.00 0.00 77 1017.2
20260503053053 10 0 0.0 1.6 0.00 0.00 0.00 76 1017.2
20260503052547 10 0 0.0 0.0 0.00 0.00 0.00 77 1017.2
20260503052046 10 0 0.0 0.0 0.00 0.00 0.00 74 1017.2
20260503051557 10 0 0.0 1.6 0.00 0.00 0.00 75 1017.2
20260503051047 10 0 0.0 1.6 0.00 0.00 0.00 74 1017.1
20260503050547 10 360 0.0 0.0 0.00 0.00 0.00 74 1017.1
20260503050057 10 0 0.0 1.6 0.00 0.00 0.00 75 1017.1
20260503045547 10 0 0.0 1.6 0.00 0.00 0.00 74 1017.0
20260503045046 10 0 0.0 1.6 0.00 0.00 0.00 74 1017.1
20260503044554 10 0 0.0 1.6 0.00 0.00 0.00 72 1017.1
20260503044046 10 0 0.0 1.6 0.00 0.00 0.00 73 1017.2
20260503043549 10 0 0.0 1.6 0.00 0.00 0.00 73 1017.0
20260503043059 10 0 0.0 1.6 0.00 0.00 0.00 73 1017.1
20260503042549 10 0 0.0 1.6 0.00 0.00 0.00 73 1017.0
20260503042051 10 0 0.0 1.6 0.00 0.00 0.00 72 1017.1
20260503041554 10 0 0.0 1.6 0.00 0.00 0.00 72 1017.1
20260503041050 10 0 0.0 1.6 0.00 0.00 0.00 73 1016.9
20260503040546 10 0 0.0 1.6 0.00 0.00 0.00 71 1017.0
20260503040059 10 0 0.0 1.6 0.00 0.00 0.00 70 1016.9